AMQ001 LBSF-EPKT

Flight info

Callsign AMQ001
Flight time 1h 22m
Altitude 38000
Route OGOTA3T/27 OGOTA N133 LOMOS DCT NARKA DCT PERIT DCT KEKED DCT LENOV
Aircraft A320/M-SDE3FGHIRWY/LB1

Departure

Time 2026-05-04 20:30
Airport Sofia Airport (LBSF)

Arrival

Time 2026-05-04 21:52
Airport Katowice Wojciech Korfanty International Airport (EPKT)
Time Latitude Longitude Altitude Speed Heading
2026-05-04 20:04 42.69141 23.40036 1749 ft 0 kts 196°
2026-05-04 20:22 42.69138 23.40035 1749 ft 4 kts 195°
2026-05-04 20:22 42.69128 23.40031 1743 ft 0 kts 194°
2026-05-04 20:22 42.69105 23.40034 1739 ft 10 kts 157°
2026-05-04 20:23 42.69062 23.40139 1749 ft 13 kts 110°
2026-05-04 20:23 42.69038 23.40260 1748 ft 13 kts 105°
2026-05-04 20:23 42.69012 23.40382 1745 ft 14 kts 107°
2026-05-04 20:23 42.68984 23.40506 1744 ft 14 kts 106°
2026-05-04 20:24 42.68957 23.40633 1744 ft 14 kts 106°
2026-05-04 20:24 42.68929 23.40760 1745 ft 14 kts 106°
2026-05-04 20:24 42.68914 23.40889 1750 ft 14 kts 80°
2026-05-04 20:24 42.68942 23.41015 1747 ft 14 kts 71°
2026-05-04 20:25 42.68972 23.41140 1748 ft 14 kts 69°
2026-05-04 20:25 42.69040 23.41220 1747 ft 16 kts
2026-05-04 20:25 42.69183 23.41164 1745 ft 19 kts 342°
2026-05-04 20:25 42.69315 23.41172 1750 ft 20 kts 12°
2026-05-04 20:26 42.69450 23.41215 1744 ft 17 kts 21°
2026-05-04 20:26 42.69481 23.41354 1747 ft 17 kts 95°
2026-05-04 20:26 42.69469 23.41563 1750 ft 31 kts 95°
2026-05-04 20:26 42.69452 23.41840 1751 ft 28 kts 95°
2026-05-04 20:27 42.69435 23.42105 1748 ft 28 kts 94°
2026-05-04 20:27 42.69420 23.42375 1747 ft 29 kts 94°
2026-05-04 20:27 42.69403 23.42648 1747 ft 29 kts 95°
2026-05-04 20:27 42.69387 23.42924 1750 ft 30 kts 95°
2026-05-04 20:28 42.69370 23.43208 1752 ft 30 kts 95°
2026-05-04 20:28 42.69353 23.43497 1753 ft 31 kts 95°
2026-05-04 20:28 42.69336 23.43740 1749 ft 19 kts 97°
2026-05-04 20:28 42.69342 23.43912 1754 ft 17 kts 61°
2026-05-04 20:29 42.69445 23.43954 1747 ft 16 kts
2026-05-04 20:29 42.69519 23.43883 1746 ft 13 kts 277°
2026-05-04 20:29 42.69520 23.43868 1747 ft 0 kts 276°
2026-05-04 20:29 42.69541 23.43511 1753 ft 83 kts 274°
2026-05-04 20:30 42.69605 23.42376 1752 ft 154 kts 275°
2026-05-04 20:30 42.69687 23.40839 2341 ft 163 kts 272°
2026-05-04 20:30 42.69902 23.39336 3189 ft 165 kts 286°
2026-05-04 20:30 42.70405 23.37898 3906 ft 176 kts 302°
2026-05-04 20:31 42.71394 23.36776 4257 ft 200 kts 339°
2026-05-04 20:31 42.72842 23.36541 4560 ft 223 kts 357°
2026-05-04 20:31 42.74496 23.36435 4958 ft 251 kts 356°
2026-05-04 20:31 42.76285 23.36303 5862 ft 261 kts 357°
2026-05-04 20:32 42.78115 23.36158 6963 ft 264 kts 358°
2026-05-04 20:32 42.79936 23.36012 8043 ft 266 kts 358°
2026-05-04 20:32 42.81816 23.35861 9177 ft 268 kts 359°
2026-05-04 20:32 42.83658 23.35715 10234 ft 272 kts
2026-05-04 20:33 42.85628 23.35564 10703 ft 295 kts 359°
2026-05-04 20:33 42.87755 23.35370 11135 ft 317 kts 359°
2026-05-04 20:33 42.89996 23.35135 11852 ft 327 kts 358°
2026-05-04 20:33 42.92285 23.34882 12663 ft 334 kts 358°
2026-05-04 20:34 42.94632 23.34620 13517 ft 341 kts 358°
2026-05-04 20:34 42.97011 23.34358 14360 ft 346 kts 358°
2026-05-04 20:34 42.99435 23.34093 15126 ft 351 kts 358°
2026-05-04 20:34 43.01879 23.33827 15905 ft 355 kts 357°
2026-05-04 20:35 43.04365 23.33557 16694 ft 359 kts 357°
2026-05-04 20:35 43.06871 23.33288 17474 ft 363 kts 357°
2026-05-04 20:35 43.09410 23.33016 18224 ft 368 kts 357°
2026-05-04 20:35 43.11958 23.32746 18852 ft 372 kts 356°
2026-05-04 20:36 43.14574 23.32468 19499 ft 375 kts 356°
2026-05-04 20:36 43.17184 23.32193 20131 ft 378 kts 356°
2026-05-04 20:36 43.19818 23.31915 20738 ft 381 kts 356°
2026-05-04 20:36 43.22441 23.31636 21332 ft 384 kts 355°
2026-05-04 20:37 43.25117 23.31350 21907 ft 387 kts 355°
2026-05-04 20:37 43.27811 23.31059 22468 ft 391 kts 355°
2026-05-04 20:37 43.30541 23.30764 23041 ft 394 kts 355°
2026-05-04 20:37 43.33283 23.30468 23625 ft 397 kts 355°
2026-05-04 20:38 43.36050 23.30168 24105 ft 400 kts 355°
2026-05-04 20:38 43.38810 23.29866 24809 ft 396 kts 355°
2026-05-04 20:38 43.41560 23.29568 25359 ft 398 kts 354°
2026-05-04 20:38 43.44337 23.29269 25841 ft 401 kts 354°
2026-05-04 20:39 43.47141 23.28971 26319 ft 405 kts 354°
2026-05-04 20:39 43.49964 23.28669 26784 ft 409 kts 354°
2026-05-04 20:39 43.52819 23.28362 27253 ft 413 kts 354°
2026-05-04 20:39 43.55696 23.28051 27732 ft 416 kts 354°
2026-05-04 20:40 43.58598 23.27733 28209 ft 420 kts 354°
2026-05-04 20:40 43.61524 23.27413 28653 ft 424 kts 353°
2026-05-04 20:40 43.64442 23.27091 29080 ft 428 kts 353°
2026-05-04 20:40 43.67422 23.26762 29503 ft 432 kts 353°
2026-05-04 20:41 43.70444 23.26429 29729 ft 440 kts 353°
2026-05-04 20:41 43.73530 23.26089 29955 ft 448 kts 354°
2026-05-04 20:41 43.76648 23.25745 30281 ft 451 kts 353°
2026-05-04 20:41 43.79785 23.25398 30621 ft 453 kts 354°
2026-05-04 20:42 43.82909 23.24972 31086 ft 450 kts 349°
2026-05-04 20:42 43.85949 23.24005 31612 ft 446 kts 343°
2026-05-04 20:42 43.88923 23.22851 32176 ft 442 kts 343°
2026-05-04 20:42 43.91879 23.21714 32738 ft 439 kts 344°
2026-05-04 20:43 43.94813 23.20591 33315 ft 436 kts 345°
2026-05-04 20:43 43.97725 23.19480 33890 ft 433 kts 345°
2026-05-04 20:43 44.00625 23.18373 34393 ft 430 kts 345°
2026-05-04 20:43 44.03508 23.17266 34825 ft 428 kts 345°
2026-05-04 20:44 44.06376 23.16160 35229 ft 427 kts 345°
2026-05-04 20:44 44.09202 23.15067 35675 ft 425 kts 345°
2026-05-04 20:44 44.12053 23.13965 36075 ft 424 kts 345°
2026-05-04 20:44 44.14890 23.12870 36477 ft 424 kts 345°
2026-05-04 20:45 44.17730 23.11775 36851 ft 423 kts 345°
2026-05-04 20:45 44.20574 23.10678 37156 ft 424 kts 345°
2026-05-04 20:45 44.23422 23.09578 37426 ft 424 kts 345°
2026-05-04 20:45 44.26269 23.08476 37701 ft 423 kts 344°
2026-05-04 20:46 44.29105 23.07373 37964 ft 424 kts 344°
2026-05-04 20:46 44.31904 23.06281 38054 ft 423 kts 344°
2026-05-04 20:46 44.37563 23.04080 38062 ft 421 kts 344°
2026-05-04 20:47 44.43208 23.01881 38063 ft 421 kts 344°
2026-05-04 20:47 44.48849 22.99674 38068 ft 421 kts 344°
2026-05-04 20:48 44.54491 22.97458 38068 ft 421 kts 344°
2026-05-04 20:48 44.60138 22.95240 38079 ft 422 kts 344°
2026-05-04 20:49 44.62965 22.94129 38353 ft 423 kts 344°
2026-05-04 20:49 44.65803 22.93015 38685 ft 423 kts 344°
2026-05-04 20:49 44.68635 22.91904 38942 ft 423 kts 344°
2026-05-04 20:49 44.71477 22.90785 39052 ft 424 kts 344°
2026-05-04 20:50 44.77163 22.88536 39074 ft 424 kts 344°
2026-05-04 20:50 44.82843 22.86286 39083 ft 424 kts 344°
2026-05-04 20:51 44.88501 22.84038 39080 ft 426 kts 344°
2026-05-04 20:51 44.94222 22.81767 39096 ft 427 kts 344°
2026-05-04 20:52 44.99941 22.79492 39103 ft 427 kts 344°
2026-05-04 20:52 45.05671 22.77213 39117 ft 428 kts 344°
2026-05-04 20:53 45.11410 22.74927 39133 ft 428 kts 344°
2026-05-04 20:53 45.17126 22.72630 39116 ft 426 kts 344°
2026-05-04 20:54 45.22794 22.70343 39123 ft 426 kts 344°
2026-05-04 20:54 45.28501 22.68050 39131 ft 427 kts 344°
2026-05-04 20:55 45.34196 22.65765 39132 ft 424 kts 344°
2026-05-04 20:55 45.39875 22.63472 39128 ft 424 kts 344°
2026-05-04 20:56 45.45546 22.61171 39142 ft 424 kts 344°
2026-05-04 20:56 45.51216 22.58867 39156 ft 424 kts 344°
2026-05-04 20:57 45.56892 22.56565 39149 ft 424 kts 344°
2026-05-04 20:57 45.62527 22.54273 39139 ft 424 kts 344°
2026-05-04 20:58 45.68194 22.51959 39150 ft 424 kts 344°
2026-05-04 20:58 45.73867 22.49632 39136 ft 423 kts 344°
2026-05-04 20:59 45.79537 22.47302 39143 ft 423 kts 344°
2026-05-04 20:59 45.85210 22.44983 39140 ft 423 kts 344°
2026-05-04 21:00 45.90873 22.42650 39140 ft 423 kts 344°
2026-05-04 21:00 45.96531 22.40319 39136 ft 423 kts 344°
2026-05-04 21:01 46.02161 22.37994 39136 ft 424 kts 344°
2026-05-04 21:01 46.07820 22.35647 39125 ft 424 kts 343°
2026-05-04 21:02 46.13482 22.33303 39130 ft 423 kts 343°
2026-05-04 21:02 46.19139 22.30946 39131 ft 423 kts 343°
2026-05-04 21:03 46.24801 22.28576 39136 ft 423 kts 343°
2026-05-04 21:03 46.30461 22.26210 39124 ft 424 kts 343°
2026-05-04 21:04 46.36127 22.23836 39130 ft 424 kts 343°
2026-05-04 21:04 46.41773 22.21475 39114 ft 424 kts 343°
2026-05-04 21:05 46.47455 22.19091 39120 ft 425 kts 343°
2026-05-04 21:05 46.52182 22.17094 39125 ft 425 kts 343°
2026-05-04 21:06 46.57866 22.14682 39117 ft 425 kts 343°
2026-05-04 21:06 46.63548 22.12278 39117 ft 425 kts 343°
2026-05-04 21:07 46.69236 22.09872 39117 ft 425 kts 343°
2026-05-04 21:07 46.74927 22.07457 39067 ft 424 kts 343°
2026-05-04 21:08 46.77749 22.06255 38507 ft 421 kts 343°
2026-05-04 21:08 46.80504 22.05080 38121 ft 415 kts 343°
2026-05-04 21:08 46.86036 22.02718 38087 ft 417 kts 343°
2026-05-04 21:09 46.91622 22.00331 38084 ft 419 kts 343°
2026-05-04 21:09 46.97228 21.97923 38085 ft 420 kts 343°
2026-05-04 21:10 47.02837 21.95510 38083 ft 420 kts 343°
2026-05-04 21:10 47.08445 21.93103 38089 ft 420 kts 343°
2026-05-04 21:11 47.14026 21.90699 38078 ft 420 kts 343°
2026-05-04 21:11 47.19643 21.88267 38083 ft 420 kts 343°
2026-05-04 21:12 47.25264 21.85822 38088 ft 421 kts 343°
2026-05-04 21:12 47.30890 21.83367 38088 ft 421 kts 343°
2026-05-04 21:13 47.36480 21.80930 38091 ft 421 kts 343°
2026-05-04 21:13 47.42112 21.78467 38101 ft 422 kts 343°
2026-05-04 21:14 47.47738 21.76005 38091 ft 422 kts 343°
2026-05-04 21:14 47.53377 21.73533 38089 ft 423 kts 343°
2026-05-04 21:15 47.59025 21.71041 38089 ft 423 kts 343°
2026-05-04 21:15 47.64629 21.68573 38088 ft 423 kts 343°
2026-05-04 21:16 47.70289 21.66079 38091 ft 423 kts 343°
2026-05-04 21:16 47.75939 21.63577 38085 ft 423 kts 343°
2026-05-04 21:17 47.81540 21.61089 38092 ft 423 kts 343°
2026-05-04 21:17 47.87190 21.58566 38078 ft 423 kts 342°
2026-05-04 21:18 47.92844 21.56039 38067 ft 424 kts 342°
2026-05-04 21:18 47.98469 21.53532 38065 ft 424 kts 343°
2026-05-04 21:19 48.04140 21.50992 38062 ft 425 kts 342°
2026-05-04 21:19 48.09810 21.48431 38069 ft 425 kts 342°
2026-05-04 21:20 48.15485 21.45876 38067 ft 425 kts 342°
2026-05-04 21:20 48.21116 21.43340 38073 ft 426 kts 342°
2026-05-04 21:21 48.26799 21.40769 38073 ft 426 kts 342°
2026-05-04 21:21 48.32477 21.38193 38070 ft 426 kts 342°
2026-05-04 21:22 48.38160 21.35601 38070 ft 426 kts 342°
2026-05-04 21:22 48.43845 21.33017 38069 ft 426 kts 342°
2026-05-04 21:23 48.46649 21.31745 37935 ft 427 kts 342°
2026-05-04 21:23 48.49525 21.30435 37535 ft 426 kts 342°
2026-05-04 21:23 48.52329 21.29153 37156 ft 426 kts 343°
2026-05-04 21:23 48.55191 21.27978 36778 ft 426 kts 345°
2026-05-04 21:24 48.58080 21.26951 36411 ft 427 kts 347°
2026-05-04 21:24 48.60988 21.26010 36044 ft 428 kts 347°
2026-05-04 21:24 48.63904 21.25094 35684 ft 428 kts 347°
2026-05-04 21:24 48.66825 21.24162 35334 ft 429 kts 347°
2026-05-04 21:25 48.69744 21.23204 34987 ft 429 kts 347°
2026-05-04 21:25 48.72668 21.22224 34642 ft 430 kts 346°
2026-05-04 21:25 48.75587 21.21229 34302 ft 430 kts 346°
2026-05-04 21:25 48.78511 21.20215 33954 ft 431 kts 346°
2026-05-04 21:26 48.81432 21.19197 33567 ft 432 kts 346°
2026-05-04 21:26 48.84328 21.18190 33189 ft 432 kts 346°
2026-05-04 21:26 48.87262 21.17176 32813 ft 433 kts 346°
2026-05-04 21:26 48.90210 21.16164 32440 ft 434 kts 347°
2026-05-04 21:27 48.93165 21.15151 32080 ft 436 kts 347°
2026-05-04 21:27 48.96125 21.14132 31718 ft 437 kts 347°
2026-05-04 21:27 48.99087 21.13105 31363 ft 438 kts 347°
2026-05-04 21:27 49.02072 21.12067 31000 ft 440 kts 346°
2026-05-04 21:28 49.05056 21.11026 30657 ft 442 kts 346°
2026-05-04 21:28 49.08064 21.09976 30313 ft 443 kts 346°
2026-05-04 21:28 49.11079 21.08927 29940 ft 444 kts 347°
2026-05-04 21:28 49.14104 21.07879 29545 ft 445 kts 346°
2026-05-04 21:29 49.17086 21.06841 29155 ft 446 kts 346°
2026-05-04 21:29 49.20109 21.05783 28767 ft 446 kts 346°
2026-05-04 21:29 49.23134 21.04722 28382 ft 444 kts 346°
2026-05-04 21:29 49.26141 21.03666 28008 ft 442 kts 346°
2026-05-04 21:30 49.29113 21.02551 27635 ft 439 kts 342°
2026-05-04 21:30 49.31931 21.00811 27271 ft 436 kts 332°
2026-05-04 21:30 49.34493 20.98369 26906 ft 433 kts 322°
2026-05-04 21:30 49.36742 20.95320 26549 ft 431 kts 313°
2026-05-04 21:31 49.40594 20.88342 25847 ft 426 kts 309°
2026-05-04 21:31 49.42498 20.84858 25504 ft 424 kts 309°
2026-05-04 21:31 49.44396 20.81393 25165 ft 422 kts 309°
2026-05-04 21:32 49.46280 20.77949 24832 ft 420 kts 309°
2026-05-04 21:32 49.48157 20.74511 24499 ft 418 kts 309°
2026-05-04 21:32 49.50019 20.71088 24172 ft 416 kts 309°
2026-05-04 21:32 49.51868 20.67680 23848 ft 414 kts 309°
2026-05-04 21:33 49.53713 20.64271 23507 ft 413 kts 309°
2026-05-04 21:33 49.55547 20.60884 23120 ft 410 kts 309°
2026-05-04 21:33 49.57371 20.57516 22741 ft 409 kts 309°
2026-05-04 21:33 49.59190 20.54153 22359 ft 407 kts 309°
2026-05-04 21:34 49.60976 20.50847 21993 ft 405 kts 308°
2026-05-04 21:34 49.62772 20.47518 21627 ft 403 kts 308°
2026-05-04 21:34 49.64561 20.44195 21262 ft 402 kts 308°
2026-05-04 21:34 49.66337 20.40889 20907 ft 400 kts 308°
2026-05-04 21:35 49.68110 20.37586 20552 ft 398 kts 308°
2026-05-04 21:35 49.69869 20.34306 20203 ft 396 kts 308°
2026-05-04 21:35 49.71622 20.31034 19858 ft 394 kts 308°
2026-05-04 21:35 49.73368 20.27776 19502 ft 393 kts 308°
2026-05-04 21:36 49.75107 20.24531 19169 ft 390 kts 308°
2026-05-04 21:36 49.77017 20.21565 18836 ft 391 kts 318°
2026-05-04 21:36 49.79253 20.19169 18508 ft 392 kts 328°
2026-05-04 21:36 49.81745 20.17436 18166 ft 393 kts 339°
2026-05-04 21:37 49.84389 20.16375 17790 ft 393 kts 345°
2026-05-04 21:37 49.87048 20.15467 17406 ft 391 kts 345°
2026-05-04 21:37 49.89702 20.14552 17040 ft 389 kts 345°
2026-05-04 21:37 49.92292 20.13412 16671 ft 385 kts 336°
2026-05-04 21:38 49.94694 20.11632 16312 ft 380 kts 327°
2026-05-04 21:38 49.96845 20.09290 15954 ft 375 kts 317°
2026-05-04 21:38 49.98729 20.06525 15605 ft 372 kts 312°
2026-05-04 21:38 50.00571 20.03699 15261 ft 370 kts 312°
2026-05-04 21:39 50.02403 20.00898 14914 ft 369 kts 312°
2026-05-04 21:39 50.04226 19.98115 14580 ft 367 kts 312°
2026-05-04 21:39 50.06045 19.95336 14249 ft 366 kts 312°
2026-05-04 21:39 50.07853 19.92566 13916 ft 362 kts 311°
2026-05-04 21:40 50.09591 19.89902 13567 ft 348 kts 311°
2026-05-04 21:40 50.11304 19.87271 13197 ft 335 kts 311°
2026-05-04 21:40 50.12916 19.84791 12834 ft 324 kts 311°
2026-05-04 21:40 50.14512 19.82324 12471 ft 314 kts 311°
2026-05-04 21:41 50.16043 19.79951 12117 ft 306 kts 311°
2026-05-04 21:41 50.17539 19.77647 11764 ft 299 kts 312°
2026-05-04 21:41 50.19191 19.75682 11415 ft 301 kts 327°
2026-05-04 21:41 50.21019 19.74105 11072 ft 300 kts 327°
2026-05-04 21:42 50.22817 19.72557 10737 ft 298 kts 327°
2026-05-04 21:42 50.24844 19.71163 10395 ft 335 kts 342°
2026-05-04 21:42 50.27095 19.70405 10058 ft 325 kts 346°
2026-05-04 21:42 50.29280 19.69750 9746 ft 314 kts 346°
2026-05-04 21:43 50.31344 19.69136 9528 ft 300 kts 346°
2026-05-04 21:43 50.33382 19.68536 9092 ft 295 kts 346°
2026-05-04 21:43 50.35373 19.67889 8602 ft 290 kts 339°
2026-05-04 21:43 50.37124 19.66451 8135 ft 280 kts 317°
2026-05-04 21:44 50.38340 19.64227 8001 ft 259 kts 297°
2026-05-04 21:44 50.39209 19.61812 7707 ft 251 kts 295°
2026-05-04 21:44 50.40050 19.59440 7324 ft 248 kts 295°
2026-05-04 21:44 50.40882 19.57079 6925 ft 246 kts 295°
2026-05-04 21:45 50.41698 19.54760 6679 ft 238 kts 295°
2026-05-04 21:45 50.42477 19.52556 6468 ft 223 kts 295°
2026-05-04 21:45 50.43203 19.50503 6340 ft 207 kts 295°
2026-05-04 21:45 50.43882 19.48576 6114 ft 198 kts 294°
2026-05-04 21:46 50.44537 19.46709 5712 ft 193 kts 294°
2026-05-04 21:46 50.45181 19.44868 5173 ft 192 kts 293°
2026-05-04 21:46 50.45823 19.43030 4676 ft 191 kts 293°
2026-05-04 21:46 50.46454 19.41222 4186 ft 189 kts 292°
2026-05-04 21:47 50.47087 19.39410 3707 ft 188 kts 292°
2026-05-04 21:47 50.47474 19.37546 3453 ft 169 kts 271°
2026-05-04 21:47 50.47498 19.35798 3252 ft 159 kts 266°
2026-05-04 21:47 50.47505 19.34075 3046 ft 157 kts 265°
2026-05-04 21:48 50.47512 19.32352 3007 ft 158 kts 265°
2026-05-04 21:48 50.47520 19.30616 3008 ft 159 kts 265°
2026-05-04 21:48 50.47528 19.28871 3007 ft 160 kts 265°
2026-05-04 21:48 50.47536 19.27142 3000 ft 154 kts 265°
2026-05-04 21:49 50.47544 19.25528 2901 ft 143 kts 265°
2026-05-04 21:49 50.47550 19.24009 2753 ft 134 kts 264°
2026-05-04 21:49 50.47556 19.22600 2613 ft 125 kts 264°
2026-05-04 21:49 50.47560 19.21250 2448 ft 123 kts 265°
2026-05-04 21:50 50.47564 19.19912 2289 ft 122 kts 263°
2026-05-04 21:50 50.47569 19.18586 2132 ft 120 kts 263°
2026-05-04 21:50 50.47573 19.17269 1974 ft 121 kts 263°
2026-05-04 21:50 50.47577 19.15945 1806 ft 123 kts 265°
2026-05-04 21:51 50.47580 19.14610 1639 ft 123 kts 266°
2026-05-04 21:51 50.47584 19.13685 1524 ft 125 kts 266°
2026-05-04 21:51 50.47588 19.12323 1348 ft 124 kts 268°
2026-05-04 21:51 50.47591 19.10948 1183 ft 126 kts 267°
2026-05-04 21:52 50.47594 19.09574 1015 ft 124 kts 268°
2026-05-04 21:52 50.47601 19.08397 992 ft 80 kts 273°
2026-05-04 21:52 50.47603 19.07863 989 ft 38 kts 270°
2026-05-04 21:52 50.47605 19.07325 988 ft 57 kts 270°
2026-05-04 21:53 50.47544 19.06998 987 ft 26 kts 242°
2026-05-04 21:53 50.47469 19.06865 986 ft 14 kts 186°
2026-05-04 21:53 50.47432 19.06926 989 ft 8 kts 103°
2026-05-04 21:53 50.47430 19.07065 984 ft 25 kts 90°
2026-05-04 21:54 50.47427 19.07366 987 ft 17 kts 90°
2026-05-04 21:54 50.47362 19.07445 990 ft 13 kts 178°
2026-05-04 21:54 50.47267 19.07446 992 ft 14 kts 172°
2026-05-04 21:54 50.47233 19.07512 991 ft 7 kts 98°
2026-05-04 21:55 50.47228 19.07565 992 ft 0 kts 98°